Regional Weather Roundup
Issued by NWS Upton, NY

Current Version | Previous Version | Graphics & Text | Print | Product List | Glossary Off
Versions: 1 2 3 4 5 6 7 8 9 10 11 12 13 14 15 16 17 18 19 20 21 22 23 24 25 26 27

000
ASUS41 KOKX 222309
RWROKX

REGIONAL WEATHER ROUNDUP
NATIONAL WEATHER SERVICE NEW YORK NY
700 PM EDT SAT JUL 22 2017

NOTE: "FAIR" INDICATES FEW OR NO CLOUDS BELOW 12,000 FEET WITH NO
SIGNIFICANT WEATHER AND/OR OBSTRUCTIONS TO VISIBILITY.

NYZ071-072-176-178-NJZ106-104-230000-
NEW YORK CITY METRO AREA

CITY           SKY/WX    TMP DP  RH WIND       PRES   REMARKS
Central Park   LGT RAIN  81  63  54 CALM      29.80F
Bronx Bot Gard   N/A     82  63  51 CALM      29.79R
LaGuardia APRT CLOUDY    85  64  49 VRB6      29.76S
Kennedy INTL   CLOUDY    81  66  60 SE7       29.78F
Breezy Point     N/A     75 N/A N/A SE5         N/A
Newark/Liberty LGT RAIN  83  67  58 E9        29.76S
Teterboro      CLOUDY    86  64  47 SE7       29.75S
$$

NYZ177-179-078>081-230000-
LONG ISLAND NEW YORK

CITY           SKY/WX    TMP DP  RH WIND       PRES   REMARKS
Jones Beach      N/A     77 N/A N/A SE5         N/A
Matinecock PT    N/A     81 N/A N/A E5          N/A
Farmingdale    CLOUDY    80  62  54 S7        29.78F
MacArthur/ISP  CLOUDY    81  63  54 SE7       29.78S
Shirley        CLOUDY    81  68  64 SE3       29.79S
Mt Sinai Harb    N/A    N/A N/A N/A MISG        N/A
Westhampton    CLOUDY    79  67  66 SE3       29.80S
East Hampton   FAIR      76  66  71 S3        29.79F
Montauk          N/A     76  68  76 CALM      29.81S
$$

NYZ052-065-067-230000-
HUDSON VALLEY

CITY           SKY/WX    TMP DP  RH WIND       PRES   REMARKS
White Plains   NOT AVBL
Larchmont Harb   N/A     77 N/A N/A N8          N/A
Croton O-T Hud   N/A     81 N/A N/A E3          N/A
Newburgh       PTSUNNY   79  68  69 E9        29.80F
Montgomery     CLOUDY    79  71  76 N3        29.78F
Poughkeepsie   LGT RAIN  76  67  73 NE5       29.77F
Albany         CLOUDY    74  64  71 CALM      29.81S
$$

NJZ001-105-106-008-010-013-015-019>022-104-230000-
NEW JERSEY

CITY           SKY/WX    TMP DP  RH WIND       PRES   REMARKS
Newark/Liberty LGT RAIN  83  67  58 E9        29.76S
Teterboro      CLOUDY    86  64  47 SE7       29.75S
Caldwell       LGT RAIN  83  66  56 E3        29.76F
Somerville     RAIN      77  76  96 CALM      29.74F FOG
Linden         LGT RAIN  84  65  53 S7        29.75F
Perth Amboy      N/A     81 N/A N/A S9          N/A
Sussex         MOSUNNY   78  71  79 CALM      29.79S
Andover          N/A     77  70  79 CALM      29.79S
Trenton        HVY RAIN  74  72  93 S7        29.77R FOG
Millville      CLOUDY    83  78  85 SW6       29.75F HX  93
Atlantic City  CLOUDY    84  76  76 S13       29.75F HX  93
Wrightstown    LGT RAIN  77  73  88 E9        29.73S
Toms River     CLOUDY    78  72  81 N7        29.78R
Belmar         CLOUDY    79  74  84 E7        29.78S
$$

PAZ047>061-062-071-230000-
EASTERN PENNSYLVANIA

CITY           SKY/WX    TMP DP  RH WIND       PRES   REMARKS
Philadelphia   PTSUNNY   84  70  62 VRB7      29.75R THUNDER
Allentown      RAIN      78  72  81 CALM      29.76S
Scranton       LGT RAIN  75  71  87 CALM      29.79S FOG
$$

CTZ002-004>006-009-010-012-RIZ004-006-007-MAZ004-011-015-230000-
SOUTHERN NEW ENGLAND
 IN CT

CITY           SKY/WX    TMP DP  RH WIND       PRES   REMARKS
Bradley INTL   CLOUDY    78  69  73 NW5       29.79F
Hartford       PTSUNNY   80  66  62 CALM      29.78S
Danbury        MOSUNNY   77  67  71 CALM      29.81F
Wtrbury/Oxford CLOUDY    79  64  61 CALM      29.82F
Bridgeport     CLOUDY    79  70  74 E6        29.78F
Meriden        CLOUDY    78  70  76 CALM      29.79S
New Haven      CLOUDY    78  66  66 E5        29.79F
Chester        FAIR      77  66  69 CALM      29.81F
Groton         CLOUDY    75  64  68 SE5       29.79S
Wilimantic     CLOUDY    80  65  59 S5        29.80S

 IN RI

CITY           SKY/WX    TMP DP  RH WIND       PRES   REMARKS
Providence     CLOUDY    78  66  66 SE8       29.79F
Block Island   CLOUDY    75  68  78 S5        29.81S
Westerly       CLOUDY    77  64  64 S6        29.81S
 IN MA

CITY           SKY/WX    TMP DP  RH WIND       PRES   REMARKS
Boston         CLOUDY    74  66  76 E3        29.78F
Worcester      CLOUDY    75  65  70 W3        29.83F
Westfield      CLOUDY    77  64  64 N5        29.80S
Provincetown   CLOUDY    76  65  68 S8        29.80F
Nantucket      MOSUNNY   69  65  86 S3        29.81S
$$

ANZ330-335-338-340-345-350-353-355-230000-
COASTAL MARINE OBSERVATIONS


STATION/POSITION TIME  SKY/WX   TEMP    WIND        PRES    VSBY  WAVE
                                AIR SEA DIR/SP/G                  HT/PER
                 (UTC)          (F)     (DEG/KT/KT) (MB)    (MI)  (FT/S)
NY HARB ENTRANCE 2150            78 78  170/ 10/ 12 1007.8          2/ 9
20 S FIRE ISLAND 2250            79 78  130/  8/ 10 1007.3          2/ 9
GREAT SOUTH BAY  2230            79 84  140/  6/  8   N/A
23 SSW MONTAUK P 2150            78 79              1009.2          2/ 7
15 E BARNEGAT LI 2230               80                N/A           2/ 9
HUDSON CANYON    2150            81 82  180/  4/  6 1007.9          3/ 6
KINGS POINT      2236            82 75  200/  8/  9 1008.0
EXECUTION ROCKS  2245            78      40/  6/  8   N/A
CENTRAL LI SOUND 2200            79     130/  4/  6   N/A           0
EASTERN LI SOUND NOT AVBL
ROBBINS REEF     2236                   150/ 11/ 12 1008.6
$$


>>>>>>>>>>>>>>>>>>>>>>>>>>>> KEY <<<<<<<<<<<<<<<<<<<<<<<<<<<
>                                                          <
>     SKY/WX - Sky Condition/Present Weather               <
>     TMP    - Temperature in Fahrenheit                   <
>     DP     - Dew Point in Fahrenheit                     <
>     RH     - Relative Humidity in Percent                <
>     WIND   - Direction (from) and Speed in MPH           <
>     PRES   - Mean Sea Level Pressure (inches of Hg)      <
>     WCI    - Wind Chill Index                            <
>     VSB    - VISIBILITY IN MILES                         <
>     HX     - HEAT INDEX                                  <
>     TC     - TEMPERATURE IN CELSIUS                      <
>     VRB    - VARIABLE WIND DIRECTION                     <
>                                                          <
>>>>>>>>>>>>>>>>>>>>>>>>>>>> KEY <<<<<<<<<<<<<<<<<<<<<<<<<<<




USA.gov is the U.S. government's official web portal to all federal, state and local government web resources and services.